[[{"header":{"parameterUnit":"m.s-1","parameterCategory":1,"la1":30.2991,"la2":30.254,"lo1":-89.0895,"lo2":-89.0444,"dy":0.0017,"dx":0.0017,"nx":28,"ny":28,"refTime":"2026-01-29T03:00:00:Z","depth":0,"parameterNumber":2,"parameterNumberName":"U-component_of_WINDS"},"data":[0,0,0,0,0,0,0,0,0,0,0,0,0,0,0,0,0,0,0,0,0,0,0,0,0,0,0,0,0,0,0,0,0,0,0,0,0,0,0,0,0,0,0,0,0,0,0,0,0,0,0,0,0,0,0,0,0,0,1.6187,1.6188,0,1.6306,1.6307,1.6308,1.6268,1.6266,1.6263,1.626,1.6383,1.6389,1.6395,0,0,0,0,0,0,0,0,0,0,0,0,0,1.5926,1.5931,1.6187,1.6188,1.619,1.6305,1.6307,1.6309,1.6269,1.6265,1.6262,1.6259,1.6382,1.6388,1.6395,0,0,0,0,0,0,0,0,0,0,0,0,0,1.6041,1.5932,1.6187,1.6184,1.6185,1.6305,1.6307,1.6309,1.6269,1.6265,1.6261,1.6258,1.6379,1.6388,1.6396,1.6527,0,0,1.6422,1.6426,0,0,0,0,0,0,0,0,1.6035,1.6051,1.6183,1.6184,1.6185,1.6268,1.626,1.6382,1.627,1.6237,1.626,1.6256,1.6348,1.6359,1.639,1.6533,1.6538,1.6423,1.6428,1.6432,1.6434,0,0,0,0,0,0,0,1.6027,1.6046,1.6234,1.6185,1.6186,1.6177,1.6189,1.6283,1.6313,1.624,1.6237,1.6252,1.6348,1.6382,1.6393,1.654,1.6423,1.643,1.6436,1.6439,1.6794,1.6799,0,0,0,0,0,0,1.6018,1.6039,1.623,1.6237,1.6099,1.6184,1.6198,1.6245,1.6312,1.6318,1.6255,1.6249,1.6369,1.6383,1.6397,1.6553,1.6432,1.644,1.6445,1.679,1.6795,1.68,0,0,0,0,0,0,1.6013,1.6035,1.6225,1.6138,1.6161,1.6193,1.6247,1.625,1.6283,1.6323,1.6329,1.6284,1.6367,1.6385,1.6494,1.6557,1.6444,1.6451,1.6785,1.6792,1.6798,1.6868,0,0,0,0,0,0,1.6005,1.6034,1.6084,1.6139,1.6166,1.6321,1.6251,1.6255,1.6298,1.6292,1.6352,1.6358,1.6365,1.6482,1.6503,1.6567,1.6458,1.678,1.6788,1.6796,1.686,1.6876,1.689,0,0,0,0,0,1.5996,1.6099,1.6086,1.611,1.6229,1.6325,1.634,1.6346,1.6303,1.6354,1.6379,1.6356,1.6547,1.6494,1.6517,1.6584,1.6776,1.6786,1.6795,1.6854,1.6873,1.689,0,0,0,0,0,0,1.6051,1.6107,1.6093,1.6217,1.6266,1.6318,1.6381,1.6366,1.6429,1.6421,1.6425,1.6439,1.6552,1.6579,1.6518,1.6714,1.6655,1.667,1.6692,1.671,1.6725,1.6716,1.6465,0,0,0,0,0,1.6077,1.615,1.6195,1.63,1.6326,1.635,1.6391,1.6391,1.6443,1.6464,1.6497,1.6548,1.662,1.6667,1.6735,1.6864,1.6876,1.6922,1.6937,1.6949,1.6961,1.7031,1.7052,1.6832,1.6832,1.6832,0,0,1.6133,1.6172,1.6218,1.6312,1.6351,1.6426,1.6367,1.645,1.6506,1.6476,1.6581,1.6608,1.6665,1.6785,1.684,1.6812,1.7025,1.6961,1.697,1.6977,1.7043,1.7064,1.7082,1.6839,1.6837,1.6836,0,0,1.6273,1.631,1.6401,1.6441,1.6499,1.6514,1.6536,1.659,1.6606,1.6712,1.6691,1.6758,1.6881,1.6922,1.6959,1.7114,1.7094,1.7136,1.7213,1.7281,1.7298,1.7313,1.7368,1.7387,1.7148,1.7149,1.7149,0,1.6334,1.6447,1.645,1.6534,1.6576,1.6552,1.6645,1.6683,1.6761,1.679,1.6757,1.691,1.6947,1.7076,1.7114,1.7145,1.717,1.7129,1.7295,1.731,1.7325,1.7377,1.7397,1.7153,1.7153,1.7152,1.7152,0,1.6519,1.6598,1.6664,1.6739,1.6789,1.6877,1.6893,1.6943,1.6938,1.6957,1.7064,1.7108,1.7184,1.7215,1.7212,1.7343,1.7324,1.7293,1.7234,1.735,1.7399,1.7419,1.716,1.7158,1.7157,1.7156,0,0,1.6697,1.6772,1.6796,1.683,1.6892,1.6953,1.7039,1.7113,1.7155,1.721,1.7282,1.7386,1.7358,1.74,1.7402,1.7461,1.758,1.7423,1.7425,1.745,1.7727,1.7749,1.7772,1.7568,1.7572,1.7575,1.7722,0,1.6841,1.6992,1.6997,1.7136,1.7208,1.7186,1.7261,1.7308,1.7328,1.7391,1.7413,1.7487,1.7444,1.747,1.7528,1.7553,1.7635,1.7543,1.7635,1.7638,1.762,1.7797,1.7821,1.7957,1.7741,1.7744,1.7746,0,1.7029,1.7088,1.7233,1.7285,1.7315,1.7383,1.745,1.7512,1.7564,1.7574,1.7621,1.7613,1.7702,1.764,1.7762,1.7698,1.7736,1.7755,1.776,1.7768,1.7699,1.7809,1.8001,1.8021,1.7777,1.7774,1.7772,0,1.7142,1.7259,1.736,1.739,1.7452,1.75,1.7529,1.7577,1.7621,1.768,1.7708,1.7777,1.7815,1.7869,1.788,1.7834,1.8002,1.7941,1.8012,1.8012,1.8048,1.8045,1.8247,1.8074,1.8073,1.8073,1.8073,0,1.7301,1.7391,1.7412,1.7475,1.7574,1.758,1.7678,1.7703,1.7746,1.7813,1.7799,1.7862,1.7874,1.7939,1.7949,1.8048,1.8065,1.8076,1.8077,1.8076,1.8075,1.8101,1.8091,1.8078,1.8077,1.8076,1.8075,0,1.7445,1.7463,1.7572,1.7622,1.7637,1.7708,1.7751,1.7811,1.7828,1.7913,1.7933,1.7962,1.8038,1.8055,1.8146,1.8153,1.827,1.8262,1.8252,1.8251,1.832,1.8313,1.8546,1.8576,1.8384,1.8385,1.8387,0,1.7545,1.7613,1.767,1.7714,1.7744,1.7815,1.7859,1.7867,1.7914,1.7978,1.803,1.8105,1.8165,1.8289,1.8318,1.8387,1.8381,1.8457,1.8391,1.8388,1.8381,1.8376,1.8383,1.847,1.8472,1.8474,1.8475,0,1.772,1.7725,1.7789,1.7857,1.791,1.7964,1.8015,1.8051,1.8066,1.8119,1.8197,1.8244,1.8336,1.8411,1.848,1.851,1.8495,1.8496,1.8516,1.8515,1.8506,1.8511,1.8285,1.849,1.8489,1.8488,1.8487,1.8486,1.7844,1.7903,1.7953,1.8025,1.8064,1.8111,1.817,1.8195,1.826,1.8335,1.8336,1.8421,1.8471,1.8563,1.8597,1.8663,1.8639,1.8668,1.8676,1.8682,1.8688,1.8496,1.8676,1.8675,1.8675,1.8675,1.8674,0,1.8018,1.8048,1.8114,1.8186,1.8242,1.8223,1.8278,1.8327,1.8401,1.8449,1.8509,1.8598,1.867,1.8704,1.8775,1.8822,1.8817,1.884,1.8837,1.8843,1.8706,1.8681,1.8843,1.8843,1.8843,1.8843,1.8843,1.8843,1.8115,1.8213,1.8225,1.8343,1.8373,1.8455,1.8488,1.8532,1.857,1.867,1.873,1.8752,1.8794,1.8868,1.8933,1.8942,1.8968,1.8995,1.9,1.887,1.8853,1.8837,1.8813,1.9001,1.9001,1.9131,1.9133,1.9133]},{"header":{"parameterUnit":"m.s-1","parameterCategory":1,"la1":30.2991,"la2":30.254,"lo1":-89.0895,"lo2":-89.0444,"dy":0.0017,"dx":0.0017,"nx":28,"ny":28,"refTime":"2026-01-29T03:00:00:Z","depth":0,"parameterNumber":3,"parameterNumberName":"V-component_of_WINDS"},"data":[0,0,0,0,0,0,0,0,0,0,0,0,0,0,0,0,0,0,0,0,0,0,0,0,0,0,0,0,0,0,0,0,0,0,0,0,0,0,0,0,0,0,0,0,0,0,0,0,0,0,0,0,0,0,0,0,0,0,1.3522,1.3522,0,1.3578,1.3579,1.3579,1.3513,1.3511,1.3508,1.3506,1.3565,1.3569,1.3572,0,0,0,0,0,0,0,0,0,0,0,0,0,1.3358,1.3361,1.3522,1.3522,1.3523,1.3578,1.3579,1.3579,1.3514,1.3511,1.3508,1.3505,1.3564,1.3568,1.3573,0,0,0,0,0,0,0,0,0,0,0,0,0,1.3423,1.3362,1.3522,1.3497,1.3495,1.3578,1.3579,1.358,1.3514,1.3511,1.3507,1.3503,1.3562,1.3568,1.3573,1.3683,0,0,1.3591,1.3594,0,0,0,0,0,0,0,0,1.342,1.3429,1.35,1.3499,1.3497,1.3535,1.3542,1.3615,1.3515,1.3507,1.3506,1.3502,1.3558,1.3564,1.3583,1.3686,1.3689,1.3592,1.3595,1.3598,1.3599,0,0,0,0,0,0,0,1.3415,1.3426,1.3544,1.3501,1.3499,1.3483,1.3488,1.3556,1.3553,1.3508,1.3503,1.351,1.3556,1.3577,1.3583,1.369,1.3592,1.3597,1.36,1.3603,1.3886,1.389,0,0,0,0,0,0,1.3413,1.3423,1.3542,1.3546,1.3448,1.3489,1.3495,1.3526,1.3552,1.3552,1.3513,1.3507,1.3569,1.3577,1.3585,1.3715,1.3598,1.3603,1.3606,1.3882,1.3887,1.3891,0,0,0,0,0,0,1.341,1.3425,1.354,1.3483,1.3497,1.3496,1.3532,1.3529,1.355,1.3556,1.3555,1.3535,1.3566,1.3577,1.3659,1.3716,1.3606,1.3611,1.3877,1.3883,1.3889,1.3977,0,0,0,0,0,0,1.3406,1.3424,1.3465,1.3485,1.35,1.3613,1.3535,1.3533,1.356,1.3552,1.3576,1.3577,1.3564,1.3651,1.3665,1.3722,1.3616,1.3872,1.388,1.3887,1.3969,1.3985,1.3999,0,0,0,0,0,1.34,1.3488,1.3468,1.3483,1.3552,1.3616,1.3625,1.3609,1.3565,1.3607,1.3611,1.3576,1.3708,1.366,1.3675,1.3735,1.3868,1.3878,1.3886,1.3962,1.3982,1.3998,0,0,0,0,0,0,1.3476,1.349,1.3468,1.3565,1.359,1.3605,1.3657,1.363,1.3669,1.366,1.3638,1.3644,1.3732,1.3742,1.3688,1.3843,1.3781,1.3794,1.3833,1.3852,1.3867,1.3862,1.362,0,0,0,0,0,1.3504,1.3555,1.3565,1.3649,1.3663,1.3658,1.3686,1.3671,1.3696,1.3707,1.3716,1.3743,1.379,1.3821,1.3865,1.397,1.3974,1.4019,1.4034,1.4046,1.4057,1.4113,1.4132,1.3921,1.3921,1.3921,0,0,1.3562,1.3576,1.361,1.3665,1.3683,1.3736,1.3668,1.3727,1.3767,1.3716,1.3794,1.3802,1.383,1.3924,1.3965,1.3935,1.4116,1.4058,1.4067,1.4072,1.4124,1.4144,1.4162,1.3927,1.3926,1.3925,0,0,1.3696,1.3712,1.3784,1.3803,1.383,1.3827,1.3844,1.3864,1.3867,1.3945,1.3908,1.3955,1.4037,1.4058,1.4079,1.4221,1.419,1.4236,1.4315,1.4369,1.4386,1.4401,1.4451,1.4469,1.4247,1.4247,1.4248,0,1.3765,1.3844,1.3824,1.3887,1.3912,1.3868,1.3941,1.396,1.4001,1.402,1.3984,1.4086,1.4102,1.42,1.4234,1.4253,1.4272,1.4233,1.4385,1.44,1.4413,1.4461,1.448,1.4253,1.4252,1.4252,1.4251,0,1.3927,1.3983,1.4037,1.4077,1.4109,1.4176,1.4167,1.4201,1.4184,1.4184,1.4264,1.4281,1.4327,1.435,1.4334,1.4446,1.4425,1.4388,1.4326,1.4439,1.4483,1.4501,1.426,1.4258,1.4257,1.4256,0,0,1.411,1.4138,1.4159,1.4176,1.4203,1.4246,1.4311,1.4356,1.4386,1.4416,1.447,1.454,1.4506,1.453,1.4516,1.4564,1.4675,1.4521,1.4521,1.4549,1.4799,1.4826,1.4848,1.4655,1.4658,1.4661,1.4796,0,1.4243,1.4356,1.434,1.4449,1.45,1.4459,1.4516,1.4539,1.4541,1.4584,1.4586,1.4636,1.4588,1.4602,1.4648,1.4652,1.4725,1.4642,1.4705,1.4707,1.4699,1.4871,1.49,1.5027,1.4813,1.4816,1.4819,0,1.4414,1.4449,1.4563,1.4582,1.4603,1.4654,1.4694,1.4736,1.4761,1.4759,1.4787,1.4764,1.483,1.4766,1.4856,1.48,1.4825,1.4831,1.4836,1.484,1.4769,1.488,1.5067,1.5086,1.4846,1.4844,1.4842,0,1.4535,1.4611,1.4689,1.4705,1.473,1.4767,1.4779,1.48,1.4828,1.4864,1.4881,1.4924,1.4947,1.4981,1.497,1.4925,1.5062,1.4998,1.5062,1.5063,1.5093,1.5091,1.5286,1.511,1.511,1.5109,1.5109,0,1.4685,1.4756,1.4744,1.4791,1.487,1.4851,1.4929,1.4936,1.4956,1.5004,1.4972,1.5018,1.5002,1.5047,1.5039,1.5115,1.5125,1.5126,1.5123,1.5128,1.5128,1.5144,1.5135,1.5114,1.5113,1.5112,1.5111,0,1.4834,1.4828,1.491,1.4927,1.4932,1.4989,1.5003,1.5048,1.5048,1.5109,1.5123,1.5122,1.5174,1.5166,1.5224,1.5219,1.5313,1.5299,1.5304,1.5301,1.5365,1.5359,1.5577,1.5604,1.5411,1.5413,1.5414,0,1.493,1.4983,1.5006,1.5035,1.505,1.5099,1.5127,1.5111,1.5142,1.5175,1.5216,1.5265,1.5303,1.5387,1.5392,1.5436,1.5423,1.5496,1.5429,1.5433,1.5423,1.542,1.5425,1.5509,1.5511,1.5513,1.5515,0,1.5101,1.5095,1.5137,1.5179,1.5213,1.5245,1.5274,1.53,1.5287,1.5323,1.5376,1.5405,1.5464,1.5512,1.5554,1.5566,1.5539,1.5536,1.5553,1.5559,1.5559,1.5559,1.5339,1.5531,1.5529,1.5528,1.5527,1.5526,1.5225,1.5271,1.5294,1.5341,1.5361,1.5389,1.5432,1.5436,1.548,1.5526,1.5514,1.5573,1.5597,1.5649,1.5666,1.5712,1.5685,1.571,1.5716,1.5723,1.573,1.5553,1.572,1.5719,1.5719,1.5718,1.5718,0,1.5394,1.5406,1.5451,1.5492,1.5529,1.55,1.553,1.5564,1.5616,1.5641,1.5679,1.5739,1.5786,1.5794,1.5839,1.5874,1.5863,1.5886,1.5883,1.5887,1.5752,1.5732,1.5895,1.5895,1.5895,1.5895,1.5895,1.5895,1.5486,1.5561,1.5559,1.5644,1.5656,1.5713,1.5733,1.5758,1.5778,1.5846,1.5885,1.589,1.5908,1.5954,1.5996,1.5997,1.6015,1.6043,1.604,1.5914,1.5896,1.5879,1.5861,1.6047,1.6048,1.617,1.6172,1.6172]}]]